Погода в Бандар-Лампунге

Индонезия     5°25′49″S   105°15′50″E
темп.,
°C
ветер,
м/с
пор.,
м/с
влажн.,
%
обл.,
%
осадки,
мм/ч
давл.,
гПа
погр.,
м
17 июня, чт
чт1701:00+23юз129499 1.6 101242
04:00+23юз1294100 0.0 101170
07:00+23зюз1192100 0.1 101382
10:00+27ю2376100 0.0 1013528
13:00+28ююв3372100 0.3 1010810
16:00+25ю249099 5.0 1010183
19:00+24ю1192100 6.6 101278
22:00+23вюв0194100 2.0 101330
18 июня, пт
пт1801:00+23с1295100 2.1 101254
04:00+23ссз229756 0.0 101167
07:00+23ссз1295100 0.0 101368
10:00+28св117199 0.0 1013513
13:00+27вюв227599 0.0 1011367
16:00+27ю128446 2.1 1010275
19:00+24ююз1292100 3.6 101280
22:00+23юз1295100 2.6 101360
19 июня, сб
сб1901:00+22сз2295100 5.0 101252
04:00+23зсз1194100 0.5 101144
07:00+23зсз119399 0.6 101343
10:00+28с117276 0.5 1013621
13:00+24вюв129498 5.0 101190
16:00+25юз118997 4.3 1010196
19:00+23сз1294100 7.7 101251
22:00+22з1197100 1.4 101456
20 июня, вс
вс2001:00+22ю1297100 3.0 101270
04:00+22юз1296100 1.1 101196
07:00+22ююз3696100 1.9 1013291
10:00+23юз2592100 0.5 1012313
13:00+26ююз3576100 0.5 1010666
16:00+26ююз2476100 0.0 1009451
19:00+24юз1286100 0.0 101188
22:00+24зюз2286100 0.0 1013108
21 июня, пн
пн2101:00+23зюз118590 0.8 101150
04:00+23з1186100 1.0 101124
07:00+23сз118483 1.3 101257
10:00+27ю017098 0.4 1012528
13:00+30ююз245576 0.4 10101238
16:00+29юз356058 0.0 1009883
19:00+23юз248286 0.0 1011142
22:00+23юз259037 0.0 1012186